• En España
  • Lista de países
  • Para 7 días
  • Temperatura del agua
  • Mapa Satelital
  • El tiempo en el mapa
  • Informadores
  • user-avatar
    Iniciar sesión

    Tiempo cada hora Graz

    Hoy, 21 Enero, Domingo

    Tiempo Temperatura Precipitaciones Viento Presión Humedad
    00:00 0°C° 0 mm 1 mps 713 mmHg 88%
    01:00 0°C° 0 mm 1 mps 712 mmHg 90%
    02:00 0°C° 0 mm 1 mps 712 mmHg 90%
    03:00 0°C° 0 mm 1 mps 711 mmHg 90%
    04:00 0°C° 0 mm 1 mps 711 mmHg 90%
    05:00 0°C° 0,1 mm 1 mps 711 mmHg 89%
    06:00 0°C° 0,1 mm 1 mps 712 mmHg 88%
    07:00 -1°C° 0 mm 2 mps 712 mmHg 86%
    08:00 +1°C° 0 mm 2 mps 713 mmHg 82%
    09:00 +2°C° 0 mm 2 mps 714 mmHg 78%
    10:00 +3°C° 0 mm 2 mps 715 mmHg 74%
    11:00 +4°C° 0,1 mm 2 mps 715 mmHg 70%
    12:00 +3°C° 0,1 mm 3 mps 716 mmHg 65%
    13:00 +4°C° 0 mm 3 mps 717 mmHg 59%
    14:00 +3°C° 0,1 mm 3 mps 718 mmHg 62%
    15:00 +3°C° 0,1 mm 3 mps 718 mmHg 66%
    16:00 +2°C° 0,1 mm 3 mps 719 mmHg 70%
    17:00 +1°C° 0,1 mm 3 mps 720 mmHg 73%
    18:00 +1°C° 0,1 mm 2 mps 721 mmHg 77%
    19:00 -1°C° 0,1 mm 2 mps 722 mmHg 81%
    20:00 -1°C° 0 mm 2 mps 722 mmHg 81%
    21:00 -2°C° 0 mm 2 mps 723 mmHg 82%
    22:00 -2°C° 0 mm 2 mps 724 mmHg 83%
    23:00 -1°C° 0 mm 1 mps 724 mmHg 83%

    Mañana, 22 Enero, Lunes

    Tiempo Temperatura Precipitaciones Viento Presión Humedad
    00:00 -1°C° 0 mm 1 mps 724 mmHg 83%
    01:00 -1°C° 0 mm 1 mps 724 mmHg 83%
    02:00 -1°C° 0 mm 1 mps 724 mmHg 83%
    03:00 -2°C° 0 mm 1 mps 724 mmHg 83%
    04:00 -2°C° 0 mm 1 mps 724 mmHg 83%
    05:00 -2°C° 0 mm 0 mps 723 mmHg 82%
    06:00 -2°C° 0 mm 0 mps 723 mmHg 81%
    07:00 -2°C° 0 mm 0 mps 723 mmHg 81%
    08:00 0°C° 0,1 mm 1 mps 723 mmHg 79%
    09:00 +1°C° 0,1 mm 1 mps 723 mmHg 77%
    10:00 +1°C° 0,1 mm 1 mps 723 mmHg 75%
    11:00 +2°C° 0 mm 1 mps 722 mmHg 72%
    12:00 +3°C° 0 mm 1 mps 722 mmHg 69%
    13:00 +4°C° 0 mm 1 mps 721 mmHg 65%
    14:00 +4°C° 0 mm 1 mps 721 mmHg 69%
    15:00 +3°C° 0 mm 1 mps 721 mmHg 72%
    16:00 +3°C° 0 mm 1 mps 721 mmHg 75%
    17:00 +2°C° 0,1 mm 1 mps 721 mmHg 77%
    18:00 +2°C° 0,1 mm 1 mps 721 mmHg 80%
    19:00 +1°C° 0,1 mm 1 mps 722 mmHg 82%
    20:00 +2°C° 0,1 mm 1 mps 722 mmHg 83%
    21:00 +1°C° 0,1 mm 0 mps 723 mmHg 83%
    22:00 +1°C° 0,1 mm 0 mps 723 mmHg 84%
    23:00 +1°C° 0,1 mm 0 mps 723 mmHg 84%

    Pasado mañana, 23 Enero, Martes

    Tiempo Temperatura Precipitaciones Viento Presión Humedad
    00:00 +2°C° 0,1 mm 1 mps 724 mmHg 84%
    01:00 +2°C° 0,1 mm 1 mps 724 mmHg 85%
    02:00 +2°C° 0,1 mm 1 mps 724 mmHg 85%
    03:00 +3°C° 0,1 mm 1 mps 725 mmHg 85%
    04:00 +3°C° 0,1 mm 1 mps 725 mmHg 85%
    05:00 +3°C° 0,1 mm 1 mps 725 mmHg 86%
    06:00 +3°C° 0,1 mm 1 mps 726 mmHg 87%
    07:00 +2°C° 0,1 mm 1 mps 726 mmHg 88%
    08:00 +3°C° 0 mm 1 mps 727 mmHg 85%
    09:00 +5°C° 0 mm 1 mps 728 mmHg 81%
    10:00 +6°C° 0 mm 1 mps 728 mmHg 78%
    11:00 +6°C° 0 mm 1 mps 729 mmHg 75%
    12:00 +7°C° 0 mm 1 mps 729 mmHg 72%
    13:00 +8°C° 0 mm 1 mps 729 mmHg 70%
    14:00 +7°C° 0 mm 1 mps 730 mmHg 74%
    15:00 +7°C° 0 mm 1 mps 730 mmHg 78%
    16:00 +6°C° 0 mm 1 mps 730 mmHg 82%
    17:00 +5°C° 0 mm 1 mps 731 mmHg 85%
    18:00 +4°C° 0 mm 1 mps 731 mmHg 87%
    19:00 +2°C° 0 mm 0 mps 732 mmHg 90%
    20:00 +2°C° 0 mm 0 mps 732 mmHg 91%
    21:00 +2°C° 0 mm 1 mps 732 mmHg 91%
    22:00 +2°C° 0 mm 1 mps 733 mmHg 91%
    23:00 +2°C° 0 mm 1 mps 733 mmHg 91%

    24 Enero, Miércoles

    Tiempo Temperatura Precipitaciones Viento Presión Humedad
    00:00 +2°C° 0 mm 1 mps 733 mmHg 91%
    01:00 +1°C° 0 mm 1 mps 733 mmHg 91%
    02:00 +1°C° 0 mm 1 mps 733 mmHg 91%
    03:00 +1°C° 0 mm 1 mps 733 mmHg 91%
    04:00 +1°C° 0 mm 1 mps 733 mmHg 90%
    05:00 +1°C° 0 mm 1 mps 733 mmHg 89%
    06:00 +2°C° 0 mm 1 mps 733 mmHg 89%
    07:00 +2°C° 0 mm 1 mps 733 mmHg 88%
    08:00 +3°C° 0 mm 1 mps 733 mmHg 84%
    09:00 +4°C° 0 mm 1 mps 733 mmHg 81%
    10:00 +6°C° 0 mm 1 mps 733 mmHg 78%
    11:00 +7°C° 0 mm 1 mps 733 mmHg 76%
    12:00 +8°C° 0 mm 1 mps 733 mmHg 74%
    13:00 +9°C° 0 mm 1 mps 732 mmHg 71%
    14:00 +8°C° 0 mm 1 mps 732 mmHg 75%
    15:00 +7°C° 0 mm 1 mps 732 mmHg 79%
    16:00 +7°C° 0 mm 1 mps 732 mmHg 83%
    17:00 +6°C° 0 mm 1 mps 731 mmHg 85%
    18:00 +5°C° 0 mm 1 mps 731 mmHg 87%
    19:00 +3°C° 0 mm 1 mps 731 mmHg 89%
    20:00 +3°C° 0 mm 1 mps 731 mmHg 90%
    21:00 +3°C° 0 mm 1 mps 731 mmHg 90%
    22:00 +3°C° 0 mm 1 mps 731 mmHg 91%
    23:00 +3°C° 0 mm 1 mps 730 mmHg 91%

    25 Enero, Jueves

    Tiempo Temperatura Precipitaciones Viento Presión Humedad
    00:00 +2°C° 0 mm 1 mps 730 mmHg 91%
    01:00 +2°C° 0 mm 1 mps 730 mmHg 91%
    02:00 +2°C° 0 mm 1 mps 729 mmHg 91%
    03:00 +2°C° 0 mm 1 mps 729 mmHg 90%
    04:00 +2°C° 0 mm 1 mps 729 mmHg 90%
    05:00 +2°C° 0 mm 1 mps 728 mmHg 89%
    06:00 +2°C° 0 mm 1 mps 728 mmHg 89%
    07:00 +2°C° 0 mm 1 mps 728 mmHg 88%
    08:00 +3°C° 0 mm 1 mps 728 mmHg 85%
    09:00 +5°C° 0 mm 1 mps 728 mmHg 83%
    10:00 +6°C° 0 mm 1 mps 728 mmHg 80%
    11:00 +7°C° 0 mm 1 mps 727 mmHg 78%
    12:00 +7°C° 0 mm 2 mps 727 mmHg 77%
    13:00 +8°C° 0 mm 2 mps 726 mmHg 75%
    14:00 +7°C° 0 mm 2 mps 726 mmHg 78%
    15:00 +8°C° 0 mm 1 mps 725 mmHg 82%
    16:00 +7°C° 0 mm 1 mps 725 mmHg 85%
    17:00 +6°C° 0 mm 1 mps 725 mmHg 87%
    18:00 +5°C° 0 mm 1 mps 725 mmHg 89%
    19:00 +4°C° 0 mm 1 mps 725 mmHg 91%
    20:00 +4°C° 0 mm 1 mps 725 mmHg 91%
    21:00 +4°C° 0 mm 1 mps 724 mmHg 91%
    22:00 +4°C° 0 mm 1 mps 724 mmHg 91%
    23:00 +4°C° 0 mm 1 mps 724 mmHg 91%

    26 Enero, Viernes

    Tiempo Temperatura Precipitaciones Viento Presión Humedad
    00:00 +4°C° 0 mm 1 mps 724 mmHg 91%
    01:00 +4°C° 0 mm 1 mps 724 mmHg 91%
    02:00 +4°C° 0 mm 1 mps 723 mmHg 91%
    03:00 +3°C° 0 mm 1 mps 723 mmHg 91%
    04:00 +3°C° 0 mm 1 mps 723 mmHg 91%
    05:00 +3°C° 0 mm 1 mps 723 mmHg 91%
    06:00 +4°C° 0 mm 1 mps 723 mmHg 91%
    07:00 +4°C° 0 mm 1 mps 723 mmHg 91%
    08:00 +5°C° 0 mm 1 mps 723 mmHg 89%
    09:00 +6°C° 0 mm 1 mps 723 mmHg 87%
    10:00 +7°C° 0 mm 1 mps 723 mmHg 85%
    11:00 +8°C° 0 mm 1 mps 723 mmHg 83%
    12:00 +9°C° 0 mm 1 mps 723 mmHg 82%
    13:00 +10°C° 0 mm 1 mps 723 mmHg 80%
    14:00 +9°C° 0 mm 1 mps 723 mmHg 83%
    15:00 +9°C° 0 mm 1 mps 724 mmHg 86%
    16:00 +9°C° 0 mm 1 mps 724 mmHg 88%
    17:00 +8°C° 0 mm 1 mps 724 mmHg 90%
    18:00 +7°C° 0 mm 1 mps 724 mmHg 92%
    19:00 +7°C° 0 mm 1 mps 725 mmHg 93%
    20:00 +6°C° 0,1 mm 1 mps 725 mmHg 93%
    21:00 +6°C° 0,1 mm 1 mps 726 mmHg 94%
    22:00 +6°C° 0,1 mm 1 mps 726 mmHg 94%
    23:00 +6°C° 0,3 mm 1 mps 726 mmHg 94%
    Mostrar más